Location: Recife
(8.0585°S, 34.8848°W)
Time: 04:38:25
(UTC-03:00)

Courier 1B - Pass Details

Date: 15 April 2026
Orbit: 962 x 1209 km, 28.3° (Epoch: 14 May)

Event Time Altitude Azimuth Distance (km) Brightness Sun altitude
Rises 13:02:06 0° 229° (SW) 4,020 10.8 58.8°
Reaches altitude 10° 13:05:22 10° 219° (SW) 3,020 10.2 58.1°
Maximum altitude 13:11:46 31° 160° (SSE) 1,820 9.0 56.8°
Drops below altitude 10° 13:17:49 10° 99° (E) 2,853 9.7 55.5°
Sets 13:20:49 0° 89° (E) 3,766 10.3 54.9°
